Hourly Data Report for November 21, 2017

All times are specified in Local Standard Time (LST). Add 1 hour to adjust for Daylight Saving Time where and when it is observed.

CHESTERFIELD INLET A
NUNAVUT

63°20'50.000" N
90°43'52.000" W
9.80 m
2300710
YCS

Related Data

No related data is available for this station

Download Data

Hourly Data (November 2017)
Hourly Data Report for November 21, 2017
Temp Definition
°C
Dew Point Temp Definition
°C
Rel Hum Definition
%
Wind Dir Definition
10's deg

Wind Spd Definition
km/h
Visibility Definition
km
Stn Press Definition
kPa
Hmdx Definition


Wind Chill Definition


Weather Definition


TIME
00:00 Legend Double Dagger -6.3 -7.5 91 35 48 LegendMM 99.21   -17 LegendNANA
01:00 Legend Double Dagger -6.6 -7.8 91 35 52 LegendMM 99.15   -17 LegendNANA
02:00 Legend Double Dagger -6.6 -8.0 90 34 50 LegendMM 99.09   -17 LegendNANA
03:00 Legend Double Dagger -6.7 -7.9 91 34 51 LegendMM 99.02   -17 LegendNANA
04:00 Legend Double Dagger -6.6 -7.9 90 34 53 LegendMM 98.97   -17 LegendNANA
05:00 Legend Double Dagger -6.6 -7.9 90 33 52 LegendMM 98.95   -17 LegendNANA
06:00 Legend Double Dagger -6.3 -7.8 90 33 50 LegendMM 98.89   -17 LegendNANA
07:00 Legend Double Dagger -6.1 -7.4 91 32 48 LegendMM 98.85   -16 LegendNANA
08:00 Legend Double Dagger -5.9 -7.0 91 32 46 LegendMM 98.83   -16 LegendNANA
09:00 Legend Double Dagger -5.8 -6.9 92 31 39 LegendMM 98.82   -15 LegendNANA
10:00 Legend Double Dagger -5.7 -6.8 92 31 39 LegendMM 98.77   -15 LegendNANA
11:00 Legend Double Dagger -5.4 -6.7 91 30 39 LegendMM 98.76   -15 LegendNANA
12:00 Legend Double Dagger -5.3 -6.6 91 31 42 LegendMM 98.79   -15 LegendNANA
13:00 Legend Double Dagger -4.8 -6.0 92 31 37 LegendMM 98.81   -14 LegendNANA
14:00 Legend Double Dagger -4.6 -5.5 94 30 41 LegendMM 98.81   -14 LegendNANA
15:00 Legend Double Dagger -5.0 -6.0 92 30 41 LegendMM 98.80   -14 LegendNANA
16:00 Legend Double Dagger -5.2 -6.1 93 30 43 LegendMM 98.82   -15 LegendNANA
17:00 Legend Double Dagger -5.3 -6.3 93 30 39 LegendMM 98.79   -14 LegendNANA
18:00 Legend Double Dagger -5.8 -6.8 93 30 39 LegendMM 98.75   -15 LegendNANA
19:00 Legend Double Dagger -6.8 -7.8 92 30 41 LegendMM 98.72   -17 LegendNANA
20:00 Legend Double Dagger -6.6 -7.7 92 29 39 LegendMM 98.66   -16 LegendNANA
21:00 Legend Double Dagger -7.2 -8.3 92 30 46 LegendMM 98.59   -18 LegendNANA
22:00 Legend Double Dagger -7.7 -8.9 91 29 43 LegendMM 98.55   -18 LegendNANA
23:00 Legend Double Dagger -9.5 -11.0 89 30 53 LegendMM 98.52   -21 LegendNANA

Notes on Data Quality.

Legend

  • E = Estimated
  • M = Missing
  • NA = Not Available
  • ‡ = Partner data that is not subject to review by the National Climate Archives
Date modified: